TimePDT,TemperatureF,Dew PointF,Humidity,Sea Level PressureIn,VisibilityMPH,Wind Direction,Wind SpeedMPH,Gust SpeedMPH,PrecipitationIn,Events,Conditions,WindDirDegrees,DateUTC
12:53 AM,64.9,57.0,75,29.90,10.0,SSE,4.6,-,N/A,,Clear,160,2013-06-14 07:53:00
1:22 AM,64.4,57.2,77,29.90,10.0,SSE,3.5,-,N/A,,Mostly Cloudy,160,2013-06-14 08:22:00
1:42 AM,64.4,57.2,77,29.90,9.0,SSE,3.5,-,N/A,,Overcast,160,2013-06-14 08:42:00
1:53 AM,64.9,57.0,75,29.89,9.0,SSE,3.5,-,N/A,,Overcast,160,2013-06-14 08:53:00
2:53 AM,64.9,57.0,75,29.89,8.0,South,3.5,-,N/A,,Overcast,170,2013-06-14 09:53:00
3:53 AM,64.9,57.9,78,29.89,8.0,Calm,Calm,-,N/A,,Overcast,0,2013-06-14 10:53:00
4:53 AM,66.0,57.0,73,29.89,9.0,SSE,4.6,-,N/A,,Overcast,160,2013-06-14 11:53:00
5:53 AM,64.9,57.0,75,29.90,9.0,South,4.6,-,N/A,,Overcast,180,2013-06-14 12:53:00
6:53 AM,64.9,55.9,73,29.91,9.0,Calm,Calm,-,N/A,,Overcast,0,2013-06-14 13:53:00
7:53 AM,66.0,57.0,73,29.91,8.0,East,3.5,-,N/A,,Overcast,90,2013-06-14 14:53:00
8:31 AM,66.2,55.4,68,29.92,9.0,ESE,3.5,-,N/A,,Overcast,110,2013-06-14 15:31:00
8:53 AM,66.9,55.9,68,29.92,9.0,South,4.6,-,N/A,,Overcast,180,2013-06-14 15:53:00
9:53 AM,68.0,55.9,65,29.91,9.0,South,4.6,-,N/A,,Overcast,190,2013-06-14 16:53:00
10:53 AM,72.0,57.0,59,29.91,9.0,Variable,3.5,-,N/A,,Mostly Cloudy,0,2013-06-14 17:53:00
11:48 AM,73.4,57.2,57,29.90,9.0,South,6.9,-,N/A,,Scattered Clouds,190,2013-06-14 18:48:00
11:53 AM,73.9,57.0,55,29.90,10.0,Variable,4.6,-,N/A,,Partly Cloudy,0,2013-06-14 18:53:00
12:53 PM,77.0,57.0,50,29.89,10.0,SW,8.1,-,N/A,,Clear,230,2013-06-14 19:53:00
1:53 PM,77.0,55.9,48,29.87,10.0,SW,8.1,-,N/A,,Clear,220,2013-06-14 20:53:00
2:53 PM,75.9,55.9,50,29.86,10.0,SW,12.7,-,N/A,,Clear,220,2013-06-14 21:53:00
3:53 PM,73.9,55.9,53,29.86,10.0,SW,9.2,17.3,N/A,,Clear,230,2013-06-14 22:53:00
4:53 PM,73.0,55.9,55,29.85,10.0,Variable,5.8,-,N/A,,Clear,0,2013-06-14 23:53:00
5:53 PM,71.1,55.0,57,29.84,10.0,SW,10.4,-,N/A,,Clear,220,2013-06-15 00:53:00
6:53 PM,69.1,55.0,61,29.85,9.0,SW,4.6,-,N/A,,Clear,220,2013-06-15 01:53:00
7:53 PM,66.9,55.0,66,29.86,9.0,SSW,8.1,-,N/A,,Clear,200,2013-06-15 02:53:00
8:53 PM,64.9,55.0,70,29.87,10.0,SSW,5.8,-,N/A,,Clear,210,2013-06-15 03:53:00
9:53 PM,64.9,55.0,70,29.89,9.0,South,4.6,-,N/A,,Scattered Clouds,170,2013-06-15 04:53:00
10:10 PM,64.4,55.4,73,29.90,9.0,SSW,3.5,-,N/A,,Mostly Cloudy,200,2013-06-15 05:10:00
10:53 PM,64.0,54.0,70,29.90,9.0,SSE,4.6,-,N/A,,Overcast,160,2013-06-15 05:53:00
11:53 PM,64.0,54.0,70,29.90,9.0,South,5.8,-,N/A,,Overcast,180,2013-06-15 06:53:00